Other Surface Observations
Issued by NWS Jacksonville, FL

Home | Current Version | Previous Version | Text Only | Print | Product List | Glossary On
Versions: 1 2 3 4 5 6 7 8 9 10 11 12 13 14 15 16 17 18 19 20 21 22 23 24 25 26 27 28 29 30 31 32 33 34 35 36 37 38 39 40 41 42 43 44 45 46 47 48 49 50
000
SXUS52 KJAX 011713
OSOJAX
OTHER SURFACE OBSERVATIONS
NATIONAL WEATHER SERVICE JACKSONVILLE FL
1200 PM EST SUN MAR 01 2015

FLZ020>025-030>033-035>038-040-011800-
...FLORIDA...

CITY           SKY/WX    TMP DP  RH WIND       PRES   REMARKS
CECIL FIELD    CLOUDY    57  55  94 N6        30.43F FOG
HERLONG FIELD  NOT AVBL
FERNANDINA BCH NOT AVBL
LAKE CITY      CLOUDY    54  52  94 NE6       30.41F FOG
JUNIPER SPGS   NOT AVBL
BUNNELL        NOT AVBL
KEYSTONE HGTS  PTSUNNY   63  61  94 NE3       30.41S
$$

GAZ132>136-149>154-162>166-011800-
...GEORGIA...

CITY           SKY/WX    TMP DP  RH WIND       PRES   REMARKS
JESUP          CLOUDY    50  46  87 NE7       30.47S FOG
HOMERVILLE     CLOUDY    50  50 100 NE5       30.46F FOG
SWAINSBORO     CLOUDY    43  41  93 N5        30.50S
CORDELE        NOT AVBL
EASTMAN        CLOUDY    44  44 100 NE5       30.51F FOG
$$

PLEASE NOTE:  THESE OBSERVATIONS ARE NOT QUALITY CONTROLLED AND MAY
NOT BE AVAILABLE AT ALL TIMES.
$$



USA.gov is the U.S. government's official web portal to all federal, state and local government web resources and services.